Regional Weather Roundup
Issued by NWS

Home | Current Version | Previous Version | Text Only | Print | Product List | Glossary Off
Versions: 1 2 3 4 5 6 7 8 9 10 11 12 13 14 15 16 17 18 19 20 21 22 23 24 25 26 27 28 29 30 31 32 33 34 35 36 37 38 39 40 41 42 43 44 45 46 47 48 49 50

000
ASUS43 KLSX 201957
RWRMO

WEATHER SUMMARY FOR MISSOURI
NATIONAL WEATHER SERVICE SPRINGFIELD MO
200 PM CST MON FEB 20 2017

NOTE: "FAIR" INDICATES FEW OR NO CLOUDS BELOW 12,000 FEET WITH NO
       SIGNIFICANT WEATHER AND/OR OBSTRUCTIONS TO VISIBILITY.
       CURRENT SKY AND/OR WEATHER CONDITIONS ARE NOT AVAILABLE FOR
       CHILLICOTHE AND FARMINGTON.

MOZ001>031-035>038-043-044-053-054-202100-
...NORTHERN AND WESTERN MISSOURI...

CITY           SKY/WX    TMP DP  RH WIND       PRES   REMARKS
KANSAS CTY INT CLOUDY    68  54  60 SW17G26   29.81F
LEE`S SUMMIT   CLOUDY    68  53  58 SW15G25   29.84S
ST JOSEPH      PTSUNNY   67  57  70 SW17      29.79F
CHILLICOTHE      N/A     65  59  81 S14       29.82F

$$
MOZ066>068-077>081-088>096-101>105-202100-
...SOUTHWEST MISSOURI...

CITY           SKY/WX    TMP DP  RH WIND       PRES   REMARKS
SPRINGFIELD    CLOUDY    71  59  65 S17       29.88F
BRANSON        PTSUNNY   68  59  73 S9G21     29.92S

$$
MOZ032>034-039>042-045>050-055>058-069>072-202100-
...CENTRAL MISSOURI...

CITY           SKY/WX    TMP DP  RH WIND       PRES   REMARKS
COLUMBIA       NOT AVBL
JEFFERSON CITY CLOUDY    76  55  48 SE20G29   29.82F
ROLLA          LGT RAIN  76  54  46 S17G31    29.88F
SEDALIA        MOSUNNY   73  58  59 S15G23    29.85F
WARRENSBURG    CLOUDY    64  57  77 S9G17     29.85F

$$
MOZ051-052-059>065-202100-
...EAST CENTRAL MISSOURI...

CITY           SKY/WX    TMP DP  RH WIND       PRES   REMARKS
ST LOUIS INTL  PTSUNNY   79  52  38 S18G25    29.93F

$$
MOZ072>076-082>087-097>100-106>115-202100-
...SOUTH CENTRAL AND SOUTHEAST MISSOURI...

CITY           SKY/WX    TMP DP  RH WIND       PRES   REMARKS
CAPE GIRARDEAU MOSUNNY   73  55  53 S12       30.00F
POPLAR BLUFF   CLOUDY    72  56  57 S9        29.98F
WEST PLAINS    PTSUNNY   72  58  61 S17G25    29.95F

$$



USA.gov is the U.S. government's official web portal to all federal, state and local government web resources and services.